Weather History for Colby, KS

Change the Weather History Date:

Saturday, January 12, 2013

  Actual Average (KGLD) Record (KGLD)
Temperature  
Mean Temperature 18 °F 30 °F  
Max Temperature 23 °F 43 °F 75 °F (1953)
Min Temperature 10 °F 17 °F -20 °F (1912)
Degree Days  
Heating Degree Days 48 35  
Month to date heating degree days 422  
Since 1 July heating degree days 2829  
Cooling Degree Days 0 0  
Month to date cooling degree days 0  
Year to date cooling degree days 0  
Moisture  
Dew Point 11 °F    
Average Humidity 76    
Maximum Humidity 92    
Minimum Humidity 63    
Precipitation  
Precipitation 0.00 in 0.01 in 0.32 in (1979)
Month to date precipitation 0.14  
Year to date precipitation 0.14  
Snow  
Snow 0.00 in 0.20 in - ()
Month to date snowfall 2.2  
Since 1 July snowfall 14.9  
Snow Depth -    
Sea Level Pressure  
Sea Level Pressure 30.01 in    
Wind  
Wind Speed 17 mph (NNW)    
Max Wind Speed 22 mph    
Max Gust Speed 32 mph    
Visibility 10 miles    
Events      
T = Trace of Precipitation, MM = Missing Value Source: NWS Daily Summary

Daily Weather History Graph

Daily Weather History Graph

Search for Another Location

Airport:

Trip Planner

Search our weather history database for the weather conditions in past years. The results will help you decide how hot, cold, wet, or windy it might be!

Date:

Astronomy

Jan. 12, 2013 Rise Set
Actual Time 8:03 AM CST 5:42 PM CST
Civil Twilight 7:33 AM CST 6:11 PM CST
Nautical Twilight 7:00 AM CST 6:44 PM CST
Astronomical Twilight 6:28 AM CST 7:17 PM CST
Moon 8:24 AM CST (1/12) 7:12 PM CST (1/12)
Length of Visible Light 10h 37m
Length of Day
9h 38m
New Moon, 1% of the Moon is Illuminated
Jan 12
New Moon
Jan 18
First Quarter
Jan 26
Full
Feb 3
Last Quarter
Feb 10
New

Hourly Weather History & Observations

Time (CST) Temp. Windchill Dew Point Humidity Pressure Visibility Wind Dir Wind Speed Gust Speed Precip Events Conditions
12:15 AM 21.2 °F 6.8 °F 15.8 °F 80% 29.87 in 10.0 mi NW 17.3 mph 24.2 mph N/A   Mostly Cloudy
12:35 AM 21.2 °F 5.2 °F 15.8 °F 80% 29.87 in 10.0 mi NW 21.9 mph 27.6 mph N/A   Mostly Cloudy
12:55 AM 19.4 °F 4.5 °F 14.0 °F 80% 29.88 in 10.0 mi NW 17.3 mph 26.5 mph N/A   Scattered Clouds
1:15 AM 19.4 °F 4.5 °F 14.0 °F 80% 29.88 in 10.0 mi NNW 17.3 mph - N/A   Scattered Clouds
1:35 AM 19.4 °F 4.1 °F 12.2 °F 74% 29.89 in 10.0 mi NW 18.4 mph 24.2 mph N/A   Mostly Cloudy
1:55 AM 19.4 °F 4.5 °F 14.0 °F 80% 29.90 in 10.0 mi NW 17.3 mph 21.9 mph N/A   Scattered Clouds
2:15 AM 19.4 °F 4.1 °F 12.2 °F 74% 29.91 in 10.0 mi NW 18.4 mph 24.2 mph N/A   Overcast
2:35 AM 19.4 °F 4.5 °F 12.2 °F 74% 29.92 in 10.0 mi NW 17.3 mph 21.9 mph N/A   Overcast
2:55 AM 17.6 °F 2.7 °F 12.2 °F 79% 29.93 in 10.0 mi NW 16.1 mph - N/A   Scattered Clouds
3:15 AM 17.6 °F 3.2 °F 12.2 °F 79% 29.93 in 10.0 mi NW 15.0 mph - N/A   Clear
3:35 AM 17.6 °F 2.2 °F 12.2 °F 79% 29.93 in 10.0 mi NW 17.3 mph - N/A   Clear
3:55 AM 17.6 °F 3.2 °F 12.2 °F 79% 29.93 in 10.0 mi NW 15.0 mph - N/A   Clear
4:15 AM 17.6 °F 1.7 °F 10.4 °F 73% 29.93 in 10.0 mi NW 18.4 mph - N/A   Clear
4:35 AM 15.8 °F 0.3 °F 10.4 °F 79% 29.93 in 10.0 mi NNW 16.1 mph - N/A   Clear
4:55 AM 15.8 °F -0.2 °F 10.4 °F 79% 29.94 in 10.0 mi NNW 17.3 mph 21.9 mph N/A   Clear
5:15 AM 15.8 °F -0.2 °F 10.4 °F 79% 29.94 in 10.0 mi NNW 17.3 mph - N/A   Clear
5:35 AM 15.8 °F 0.9 °F 10.4 °F 79% 29.95 in 10.0 mi NNW 15.0 mph - N/A   Clear
5:55 AM 14.0 °F -3.0 °F 10.4 °F 86% 29.95 in 10.0 mi NNW 18.4 mph - N/A   Clear
6:15 AM 14.0 °F -4.3 °F 8.6 °F 79% 29.95 in 10.0 mi NNW 21.9 mph 27.6 mph N/A   Clear
6:35 AM 14.0 °F -3.9 °F 8.6 °F 79% 29.96 in 10.0 mi NNW 20.7 mph 26.5 mph N/A   Clear
6:55 AM 14.0 °F -3.0 °F 8.6 °F 79% 29.97 in 10.0 mi NNW 18.4 mph - N/A   Clear
7:15 AM 14.0 °F -3.4 °F 8.6 °F 79% 29.97 in 10.0 mi NNW 19.6 mph 25.3 mph N/A   Clear
7:35 AM 14.0 °F -3.0 °F 8.6 °F 79% 29.97 in 10.0 mi NNW 18.4 mph 25.3 mph N/A   Clear
7:55 AM 14.0 °F -3.0 °F 8.6 °F 79% 29.99 in 10.0 mi NNW 18.4 mph 24.2 mph N/A   Clear
8:15 AM 14.0 °F -2.0 °F 8.6 °F 79% 30.01 in 10.0 mi NNW 16.1 mph - N/A   Clear
8:35 AM 14.0 °F -2.5 °F 8.6 °F 79% 30.02 in 10.0 mi NNW 17.3 mph 21.9 mph N/A   Clear
8:55 AM 14.0 °F -2.0 °F 8.6 °F 79% 30.04 in 10.0 mi NNW 16.1 mph - N/A   Clear
9:15 AM 15.8 °F -0.6 °F 8.6 °F 73% 30.06 in 10.0 mi NNW 18.4 mph 24.2 mph N/A   Clear
9:35 AM 17.6 °F 0.9 °F 8.6 °F 68% 30.07 in 10.0 mi NNW 20.7 mph - N/A   Clear
9:55 AM 17.6 °F 0.9 °F 8.6 °F 68% 30.06 in 10.0 mi NNW 20.7 mph 32.2 mph N/A   Clear
10:15 AM 19.4 °F 3.2 °F 8.6 °F 63% 30.06 in 10.0 mi NNW 20.7 mph 29.9 mph N/A   Mostly Cloudy
10:35 AM 19.4 °F 2.8 °F 8.6 °F 63% 30.06 in 10.0 mi NW 21.9 mph 29.9 mph N/A   Mostly Cloudy
10:55 AM 19.4 °F 2.8 °F 10.4 °F 68% 30.05 in 10.0 mi NNW 21.9 mph 28.8 mph N/A   Scattered Clouds
11:15 AM 19.4 °F 3.6 °F 10.4 °F 68% 30.07 in 10.0 mi NNW 19.6 mph 25.3 mph N/A   Mostly Cloudy
11:35 AM 19.4 °F 4.1 °F 10.4 °F 68% 30.06 in 10.0 mi NNW 18.4 mph - N/A   Mostly Cloudy
11:55 AM 21.2 °F 7.3 °F 12.2 °F 68% 30.05 in 10.0 mi NNW 16.1 mph 23.0 mph N/A   Scattered Clouds
12:15 PM 21.2 °F 7.8 °F 12.2 °F 68% 30.03 in 10.0 mi NNW 15.0 mph 26.5 mph N/A   Clear
12:35 PM 23.0 °F 8.0 °F 12.2 °F 63% 30.02 in 10.0 mi NNW 20.7 mph 25.3 mph N/A   Clear
12:55 PM 23.0 °F 7.6 °F 12.2 °F 63% 30.00 in 10.0 mi NW 21.9 mph - N/A   Clear
1:15 PM 23.0 °F 8.3 °F 14.0 °F 68% 30.01 in 10.0 mi NNW 19.6 mph 24.2 mph N/A   Clear
1:35 PM 23.0 °F 8.0 °F 12.2 °F 63% 30.00 in 10.0 mi NW 20.7 mph 25.3 mph N/A   Clear
1:55 PM 23.0 °F 9.2 °F 12.2 °F 63% 30.00 in 10.0 mi NNW 17.3 mph 25.3 mph N/A   Clear
2:15 PM 23.0 °F 9.2 °F 12.2 °F 63% 30.01 in 10.0 mi NNW 17.3 mph 21.9 mph N/A   Clear
2:35 PM 23.0 °F 8.7 °F 12.2 °F 63% 30.00 in 10.0 mi NNW 18.4 mph 24.2 mph N/A   Clear
2:55 PM 23.0 °F 8.3 °F 12.2 °F 63% 29.98 in 10.0 mi NW 19.6 mph 23.0 mph N/A   Clear
3:15 PM 23.0 °F 9.2 °F 12.2 °F 63% 30.01 in 10.0 mi NNW 17.3 mph - N/A   Clear
3:35 PM 23.0 °F 10.1 °F 12.2 °F 63% 30.02 in 10.0 mi North 15.0 mph - N/A   Clear
3:55 PM 23.0 °F 10.6 °F 12.2 °F 63% 30.02 in 10.0 mi NNW 13.8 mph 19.6 mph N/A   Clear
4:15 PM 21.2 °F 8.3 °F 12.2 °F 68% 30.02 in 10.0 mi NNW 13.8 mph 18.4 mph N/A   Clear
4:35 PM 21.2 °F 7.3 °F 12.2 °F 68% 30.02 in 10.0 mi NNW 16.1 mph 21.9 mph N/A   Clear
4:55 PM 21.2 °F 7.8 °F 12.2 °F 68% 30.02 in 10.0 mi NNW 15.0 mph - N/A   Clear
5:15 PM 21.2 °F 8.9 °F 12.2 °F 68% 30.02 in 10.0 mi NNW 12.7 mph - N/A   Clear
5:35 PM 19.4 °F 8.6 °F 12.2 °F 74% 30.03 in 10.0 mi NNW 9.2 mph 19.6 mph N/A   Clear
6:15 PM 17.6 °F 5.7 °F 12.2 °F 79% 30.04 in 10.0 mi NNW 10.4 mph - N/A   Clear
6:35 PM 17.6 °F 5.0 °F 12.2 °F 79% 30.04 in 10.0 mi NNW 11.5 mph - N/A   Clear
6:55 PM 17.6 °F 5.0 °F 12.2 °F 79% 30.04 in 10.0 mi NNW 11.5 mph - N/A   Clear
7:15 PM 15.8 °F 2.7 °F 12.2 °F 86% 30.06 in 10.0 mi NNW 11.5 mph - N/A   Clear
7:35 PM 15.8 °F 3.4 °F 10.4 °F 79% 30.06 in 10.0 mi NNW 10.4 mph - N/A   Clear
7:55 PM 14.0 °F 0.5 °F 10.4 °F 86% 30.07 in 10.0 mi NNW 11.5 mph - N/A   Clear
8:15 PM 14.0 °F 0.5 °F 10.4 °F 86% 30.07 in 10.0 mi NNW 11.5 mph - N/A   Clear
8:35 PM 14.0 °F 2.0 °F 10.4 °F 86% 30.07 in 10.0 mi NNW 9.2 mph - N/A   Clear
8:55 PM 14.0 °F 2.0 °F 10.4 °F 86% 30.07 in 10.0 mi NNW 9.2 mph - N/A   Clear
9:15 PM 12.2 °F 0.7 °F 10.4 °F 92% 30.08 in 10.0 mi NNW 8.1 mph - N/A   Clear
9:35 PM 12.2 °F -0.2 °F 10.4 °F 92% 30.08 in 10.0 mi NNW 9.2 mph - N/A   Clear
9:55 PM 12.2 °F -0.2 °F 10.4 °F 92% 30.08 in 10.0 mi NNW 9.2 mph - N/A   Clear
10:15 PM 12.2 °F 1.7 °F 10.4 °F 92% 30.09 in 10.0 mi NNW 6.9 mph - N/A   Clear
10:35 PM 12.2 °F -0.2 °F 8.6 °F 85% 30.09 in 10.0 mi North 9.2 mph - N/A   Clear
10:55 PM 12.2 °F 2.9 °F 8.6 °F 85% 30.11 in 10.0 mi NNW 5.8 mph - N/A   Clear
11:15 PM 12.2 °F 2.9 °F 8.6 °F 85% 30.12 in 10.0 mi NNW 5.8 mph - N/A   Clear
11:35 PM 12.2 °F 4.3 °F 8.6 °F 85% 30.12 in 10.0 mi NW 4.6 mph - N/A   Clear
11:55 PM 10.4 °F -0.4 °F 8.6 °F 92% 30.11 in 10.0 mi NW 6.9 mph - N/A   Clear